7 * 24
多渠道服务支持
STARLINK-35731是美国SpaceX公司于2025年10月28日发射的星链(Starlink)星座卫星,属于低地球轨道(LEO)通信卫星,是星链全球互联网星座组网的组成部分,旨在为全球无传统网络基础设施覆盖的偏远地区、海洋等区域提供高速低时延的宽带互联网接入服务。星链卫星一般设计寿命为5-7年,退役后会快速离轨降解,依托SpaceX的规模化部署,该卫星助力星链实现更广泛的全球覆盖,进一步完善低轨卫星通信网络能力。
美国
(US)
| 数据来源 | 国际轨道数据 |
| 星历时间: | 2026-05-25T12:00:04+0800 6小时前 查看轨道信息 |
| 半长轴: | 6843.459km |
| 偏心率: | 0.0001765 |
| 轨道倾角: | 53.160° |
| 近地点辐角 | 97.114° |
| 升交点赤经 | 234.530° |
| 平近点角 | 152.200° |
| 近地点: | 464.114km |
| 远地点: | 466.53km |
| 周期: | 93.902分钟 |
| 每日圈数: | 15.335195 |